Location: Ab? ar R?sh Ba?r?
(24.1861°N, 32.8847°E)
Time: 21:31:13
(UTC+00:00)

H-2A R/B - Pass Details

Date: 06 June 2022
Orbit: 576 x 652 km, 98.5° (Epoch: 03 July)

Event Time Altitude Azimuth Distance (km) Brightness Sun altitude
Rises 17:12:08 0° 27° (NNE) 2,821 5.5 -8.4°
Reaches altitude 10° 17:14:29 10° 38° (NE) 1,929 4.5 -8.9°
Maximum altitude 17:18:10 30° 100° (E) 1,090 2.8 -9.6°
Drops below altitude 10° 17:21:54 10° 161° (SSE) 1,961 4.2 -10.4°
Enters shadow 17:23:29 - 169° (S) 2,553 4.8 -10.7°
